星链-1698 (STARLINK-1698 )

导读 | 豆包AI

STARLINK-1698是美国SpaceX公司星链(Starlink)卫星互联网项目的一员,于2020年10月6日发射升空。作为星链低轨星座的组成部分,它运行在近地轨道,属于星链全球互联网覆盖网络的一部分,旨在为地面基础设施匮乏区域提供高速低延迟宽带网络服务,助力星链实现全球网络覆盖,推动全球互联互通。

基本信息
目录编号:
46547
目录名称:
STARLINK-1698
国际标识:
2020-070R
轨道中心:
EARTH
卫星名称:
星链-1698
卫星全名:
星链-1698 (STARLINK-1698 )
卫星状态:
已陨落 最后检测时间 2024-09-07
发射日期:
2020-10-06 UTC
国别 :
美国 (US)
星等 :
--
轨道信息
数据来源 国际轨道数据
星历时间: 2024-09-08T00:47:48+0800
轨道信息已过期552天
半长轴: 6557.842km
偏心率: 0.0009027
轨道倾角: 53.022°
近地点辐角 282.302°
升交点赤经 52.743°
平近点角 161.150°
近地点: 173.787km
远地点: 185.627km
周期: 88.085分钟
每日圈数: 16.347879
详细信息
固有亮度:
5
最大亮度:
2.5
卫星平台:
Starlink V1.0
覆盖范围:
全球
运营商:
太空探索技术公司
运营商所在国:
美国
制造商(研发单位):
太空探索技术公司
制造商所在国:
美国
使用方式:
暂无
卫星简介
星链(Starlink)计划是由太空探索技术公司(SpaceX)提出的一个巨型低轨卫星互联网星座项目,计划在2019年至2024年间在太空搭建由约1.2万颗卫星组成的“星链”网络,其中1584颗将部署在地球上空550千米处的近地轨道,并从2020年开始工作。该卫星仍在工作。